Weather History for Andalusia, AL

Change the Weather History Date:

Thursday, May 15, 2014

  Actual Average (KCEW) Record (KCEW)
Temperature  
Mean Temperature 64 °F -  
Max Temperature 72 °F 86 °F 96 °F (1998)
Min Temperature 55 °F 58 °F 50 °F (1978)
Growing Degree Days 14 (Base 50)    
Moisture  
Dew Point 55 °F    
Average Humidity 73    
Maximum Humidity 88    
Minimum Humidity 41    
Precipitation  
Precipitation 0.02 in - - ()
Sea Level Pressure  
Sea Level Pressure 30.03 in    
Wind  
Wind Speed 9 mph (NNW)    
Max Wind Speed 18 mph    
Max Gust Speed 29 mph    
Visibility 8 miles    
Events Fog , Rain    
Averages and records for this station are not official NWS values.
T = Trace of Precipitation, MM = Missing Value Source: NWS Daily Summary

Daily Weather History Graph

Daily Weather History Graph

Search for Another Location

Airport:

Trip Planner

Search our weather history database for the weather conditions in past years. The results will help you decide how hot, cold, wet, or windy it might be!

Date:

Astronomy

May. 15, 2014 Rise Set
Actual Time 5:49 AM CDT 7:34 PM CDT
Civil Twilight 5:23 AM CDT 8:01 PM CDT
Nautical Twilight 4:50 AM CDT 8:33 PM CDT
Astronomical Twilight 4:17 AM CDT 9:07 PM CDT
Moon 8:42 PM CDT (5/15) 6:35 AM CDT (5/15)
Length of Visible Light 14h 38m
Length of Day
13h 45m
Full, 99% of the Moon is Illuminated
May 15
Full
May 21
Last Quarter
May 28
New
Jun 5
First Quarter
Jun 12
Full

Hourly Weather History & Observations

Time (CDT) Temp. Dew Point Humidity Pressure Visibility Wind Dir Wind Speed Gust Speed Precip Events Conditions
12:20 AM 69.8 °F 66.2 °F 88% 29.97 in 0.5 mi NW 3.5 mph - N/A Fog Fog
12:26 AM 69.8 °F 64.4 °F 83% 29.97 in 1.5 mi NW 4.6 mph - N/A   Overcast
12:36 AM 69.8 °F 66.2 °F 88% 29.96 in 1.0 mi NNW 4.6 mph - N/A   Mist
12:45 AM 69.8 °F 64.4 °F 83% 29.96 in 1.5 mi NNW 4.6 mph - N/A   Overcast
12:48 AM 69.8 °F 64.4 °F 83% 29.96 in 3.0 mi NNW 5.8 mph - N/A   Overcast
12:56 AM 69.1 °F 64.9 °F 87% 29.95 in 5.0 mi NNW 5.8 mph - N/A   Overcast
1:12 AM 68.0 °F 62.6 °F 83% 29.96 in 2.5 mi North 12.7 mph 18.4 mph 0.01 in Rain Light Rain
1:22 AM 66.2 °F 62.6 °F 88% 29.96 in 3.0 mi North 9.2 mph - 0.01 in Rain Light Rain
1:34 AM 66.2 °F 62.6 °F 88% 29.97 in 3.0 mi NNW 15.0 mph 20.7 mph 0.01 in Rain Light Rain
1:47 AM 64.4 °F 60.8 °F 88% 29.97 in 4.0 mi NNW 10.4 mph - 0.01 in   Overcast
1:56 AM 64.9 °F 61.0 °F 87% 29.96 in 7.0 mi NNW 10.4 mph - 0.01 in   Overcast
2:18 AM 64.4 °F 60.8 °F 88% 29.97 in 10.0 mi NNW 9.2 mph - N/A   Overcast
2:38 AM 64.4 °F 60.8 °F 88% 29.96 in 8.0 mi NNW 10.4 mph - N/A   Overcast
2:47 AM 64.4 °F 59.0 °F 83% 29.97 in 6.0 mi North 12.7 mph - 0.00 in Rain Light Rain
2:56 AM 63.0 °F 59.0 °F 87% 29.96 in 7.0 mi North 11.5 mph - 0.00 in Rain Light Rain
3:18 AM 62.6 °F 57.2 °F 82% 29.97 in 10.0 mi NNW 11.5 mph - 0.00 in   Overcast
3:56 AM 62.1 °F 57.0 °F 84% 29.98 in 7.0 mi North 10.4 mph - 0.00 in Rain Light Rain
4:56 AM 60.1 °F 55.0 °F 83% 30.00 in 10.0 mi NNW 11.5 mph - 0.00 in   Overcast
5:56 AM 59.0 °F 54.0 °F 83% 30.01 in 7.0 mi North 9.2 mph - 0.00 in Rain Light Rain
6:12 AM 59.0 °F 53.6 °F 82% 30.03 in 10.0 mi NNW 12.7 mph - 0.01 in   Overcast
6:56 AM 59.0 °F 53.1 °F 81% 30.04 in 8.0 mi NNW 11.5 mph - 0.01 in Rain Rain
7:56 AM 57.9 °F 52.0 °F 81% 30.05 in 10.0 mi North 13.8 mph - 0.00 in   Overcast
8:56 AM 57.9 °F 52.0 °F 81% 30.07 in 10.0 mi North 13.8 mph 21.9 mph N/A   Overcast
9:04 AM 57.2 °F 51.8 °F 82% 30.08 in 10.0 mi North 12.7 mph 21.9 mph N/A   Overcast
9:11 AM 57.2 °F 51.8 °F 82% 30.08 in 10.0 mi North 12.7 mph 23.0 mph N/A   Overcast
9:56 AM 61.0 °F 50.0 °F 67% 30.08 in 10.0 mi North 11.5 mph - N/A   Overcast
10:56 AM 64.9 °F 50.0 °F 58% 30.08 in 10.0 mi NNW 12.7 mph - N/A   Overcast
11:56 AM 66.9 °F 48.9 °F 52% 30.08 in 10.0 mi North 16.1 mph 21.9 mph N/A   Mostly Cloudy
12:03 PM 66.2 °F 48.2 °F 52% 30.09 in 10.0 mi North 13.8 mph - N/A   Mostly Cloudy
12:56 PM 69.1 °F 48.0 °F 47% 30.06 in 10.0 mi North 12.7 mph 28.8 mph N/A   Scattered Clouds
1:56 PM 70.0 °F 46.9 °F 44% 30.06 in 10.0 mi North 16.1 mph 23.0 mph N/A   Partly Cloudy
2:56 PM 71.1 °F 46.9 °F 42% 30.05 in 10.0 mi North 17.3 mph 25.3 mph N/A   Partly Cloudy
3:56 PM 72.0 °F 46.9 °F 41% 30.04 in 10.0 mi North 16.1 mph 25.3 mph N/A   Partly Cloudy
4:56 PM 71.1 °F 46.0 °F 41% 30.04 in 10.0 mi NNW 18.4 mph 26.5 mph N/A   Clear
5:56 PM 70.0 °F 45.0 °F 41% 30.04 in 10.0 mi North 13.8 mph 25.3 mph N/A   Clear
6:56 PM 68.0 °F 45.0 °F 43% 30.07 in 10.0 mi North 12.7 mph - N/A   Clear
7:56 PM 63.0 °F 46.9 °F 56% 30.08 in 10.0 mi NNW 6.9 mph - N/A   Clear
8:56 PM 60.1 °F 46.9 °F 62% 30.10 in 10.0 mi NNW 4.6 mph - N/A   Clear
9:56 PM 57.9 °F 48.0 °F 70% 30.13 in 10.0 mi NNW 4.6 mph - N/A   Clear
10:56 PM 57.0 °F 46.9 °F 69% 30.14 in 10.0 mi Calm Calm - N/A   Clear
11:56 PM 55.0 °F 48.0 °F 77% 30.13 in 10.0 mi Calm Calm - N/A   Clear